STARLINK-5159 (53974 NORAD) Tracking and Keplerian Element Data

This shows tracking and keplerian element data for the satellite.

Feedback or suggestion? Click here.




ElementValue
Catalog53974
NameSTARLINK-5159
Epoch Orbit768
Epoch Day325.25001157
Epoch Year2022
RAAN222.2477
Inclination53.2145
Eccentricity0.0001464
Argument of Perigee43.9447
Mean Anonmoly25.5201
Mean Motion15.73206112
Decay Rate-0.00033608
L11 53974U 22125L 22325.25001157 -.00033608 00000+0 -23593-3 0 9991
L22 53974 53.2145 222.2477 0001464 43.9447 25.5201 15.73206112 7686



Live tracking and technical data element details for STARLINK-5159 (NORAD 53974). STARLINK-5159 can be tracked NOW for your location showing map with azimuth and elevation plus other details from your city location.







IsCatalogInMostPopularTable: catalog: 53974, numindb: 3
Update: records affected: 1



GetName: 53974 STARLINK-5159

Hit Count: updated at: Mon, 28 Nov 2022 21:17:49 GMT